Japanese version Home page |
Updated on April 12, 2008 |
Profile
|
Orbital ElementsThe following orbital elements are taken from MPC 60465: Epoch 2007 June 29.0 TT = JDT 2454280.5 T 2007 July 1.4628 TT MPC q 3.432989 (2000.0) P Q z +0.004481 Peri. 337.1374 +0.5227493 -0.0284436 +/-0.000040 Node 298.0753 -0.5530910 -0.7718536 e 0.984617 Incl. 105.0635 -0.6487091 +0.6351637 From 40 observations 2007 May 27-Aug. 21, mean residual 0".3.
|
Magnitudes Graphm1 = 10.5 + 5 log d + 10.0 log r
|
The orbital elements are published at the MPC Ephemerides and Orbital Elements.
|